TimeGMT,TemperatureF,Dew PointF,Humidity,Sea Level PressureIn,VisibilityMPH,Wind Direction,Wind SpeedMPH,Gust SpeedMPH,PrecipitationIn,Events,Conditions,WindDirDegrees,DateUTC
12:50 AM,41.0,39.2,93,29.86,6.2,NW,4.6,-,N/A,,Mostly Cloudy,320,2012-11-30 00:50:00
1:50 AM,39.2,37.4,93,29.83,6.2,East,4.6,-,N/A,,Mostly Cloudy,100,2012-11-30 01:50:00
2:50 AM,39,38,96,29.85,19,East,3.5,,,,Overcast,90,2012-11-30 02:50:00
2:50 AM,39.2,39.2,100,29.83,6.2,East,3.5,-,N/A,,Mostly Cloudy,90,2012-11-30 02:50:00
3:50 AM,39.2,39.2,100,29.83,6.2,SE,4.6,-,N/A,,Mostly Cloudy,130,2012-11-30 03:50:00
4:50 AM,39.2,39.2,100,29.83,6.2,ESE,3.5,-,N/A,,Mostly Cloudy,110,2012-11-30 04:50:00
5:50 AM,39,39,99,29.84,19,ESE,2.3,,,,Overcast,110,2012-11-30 05:50:00
5:50 AM,39.2,39.2,100,29.83,6.2,ESE,2.3,-,N/A,,Overcast,110,2012-11-30 05:50:00
6:50 AM,39.2,39.2,100,29.83,6.2,ENE,3.5,-,N/A,,Overcast,60,2012-11-30 06:50:00
7:50 AM,37.4,37.4,100,29.83,6.2,ESE,4.6,-,N/A,,Scattered Clouds,110,2012-11-30 07:50:00
8:50 AM,38,37,96,29.86,28,ESE,3.5,,,,Scattered Clouds,110,2012-11-30 08:50:00
8:50 AM,37.4,37.4,100,29.86,6.2,ESE,3.5,-,N/A,,Mostly Cloudy,110,2012-11-30 08:50:00
9:50 AM,41.0,39.2,93,29.86,6.2,SE,2.3,-,N/A,,Mostly Cloudy,140,2012-11-30 09:50:00
10:50 AM,42.8,41.0,93,29.86,6.2,ENE,2.3,-,N/A,,Mostly Cloudy,70,2012-11-30 10:50:00
11:50 AM,45,42,87,29.89,28,ESE,3.5,,,,Scattered Clouds,110,2012-11-30 11:50:00
11:50 AM,44.6,42.8,93,29.86,6.2,ESE,3.5,-,N/A,,Mostly Cloudy,110,2012-11-30 11:50:00
12:50 PM,46.4,41.0,81,29.86,6.2,ESE,3.5,-,N/A,,Mostly Cloudy,120,2012-11-30 12:50:00
1:50 PM,44.6,41.0,87,29.89,6.2,ESE,1.2,-,N/A,,Mostly Cloudy,120,2012-11-30 13:50:00
2:50 PM,44,41,83,29.89,25,East,2.3,,,,Scattered Clouds,100,2012-11-30 14:50:00
2:50 PM,42.8,41.0,93,29.89,6.2,East,2.3,-,N/A,,Mostly Cloudy,100,2012-11-30 14:50:00
3:50 PM,41.0,39.2,93,29.89,6.2,ESE,1.2,-,N/A,,Scattered Clouds,120,2012-11-30 15:50:00
4:50 PM,41.0,39.2,93,29.92,6.2,SSW,4.6,-,N/A,,Mostly Cloudy,210,2012-11-30 16:50:00
5:50 PM,37,37,100,29.93,6,SE,1.2,,,,Light Haze,140,2012-11-30 17:50:00
5:50 PM,37.4,37.4,100,29.92,5.6,SE,1.2,-,N/A,,Mostly Cloudy,140,2012-11-30 17:50:00
6:50 PM,37.4,37.4,100,29.95,6.2,East,3.5,-,N/A,,Mostly Cloudy,80,2012-11-30 18:50:00
7:50 PM,35.6,35.6,100,29.95,5.6,East,3.5,-,N/A,,Mostly Cloudy,90,2012-11-30 19:50:00
8:50 PM,37,36,95,29.97,6,SE,2.3,,,,Mostly Cloudy,130,2012-11-30 20:50:00
8:50 PM,37.4,35.6,93,29.95,6.2,SE,2.3,-,N/A,,Mostly Cloudy,130,2012-11-30 20:50:00
9:50 PM,35.6,35.6,100,29.98,6.2,SSE,2.3,-,N/A,,Partly Cloudy,150,2012-11-30 21:50:00
10:50 PM,37.4,35.6,93,29.98,5.0,SSE,3.5,-,N/A,,Mostly Cloudy,160,2012-11-30 22:50:00
11:50 PM,37,37,98,29.98,9,NW,2.3,,,,Light Haze,320,2012-11-30 23:50:00
11:50 PM,37.4,37.4,100,29.98,6.2,NW,2.3,-,N/A,,Mostly Cloudy,320,2012-11-30 23:50:00